Springfield, CO

9:39 PM MDT on May 21, 2018 (GMT -0600)
Springfield

Weather History for KSPD - January, 2013

Change the Weather History Date:

Wednesday, January 16, 2013

  Actual Average Record
Temperature  
Mean Temperature 37 °F -  
Max Temperature 52 °F 47 °F 70 °F (2015)
Min Temperature 22 °F 18 °F -8 °F (2018)
Degree Days  
Heating Degree Days 28 33  
Month to date heating degree days 614 533  
Since 1 July heating degree days 2548 2691  
Cooling Degree Days 0 0  
Month to date cooling degree days 0 0  
Year to date cooling degree days 0 0  
Moisture  
Dew Point 18 °F    
Average Humidity 49    
Maximum Humidity 68    
Minimum Humidity 30    
Precipitation  
Precipitation 0.00 in 0.01 in 0.10 in (2017)
Month to date precipitation 0.02 0.13  
Year to date precipitation 0.02 0.13  
Sea Level Pressure  
Sea Level Pressure 30.21 in    
Wind  
Wind Speed 14 mph (NNW)    
Max Wind Speed 25 mph    
Max Gust Speed 30 mph    
T = Trace of Precipitation, MM = Missing Value Source: NWS Daily Summary

Daily Weather History Graph

Daily Weather History Graph

Search for Another Location

Airport or City:

Astronomy

Jan. 16, 2013 Rise Set
Actual Time 7:02 AM MST 4:58 PM MST
Civil Twilight 6:34 AM MST 5:26 PM MST
Nautical Twilight 6:02 AM MST 5:58 PM MST
Astronomical Twilight 5:31 AM MST 6:29 PM MST
Moon 9:48 AM MST (1/16) 10:42 PM MST (1/16)
Length of Visible Light 10h 51m
Length of Day
9h 55m
Waxing Crescent, 29% of the Moon is Illuminated
Jan 16
Waxing Crescent
Jan 18
First Quarter
Jan 26
Full
Feb 3
Last Quarter
Feb 10
New

Hourly Weather History & Observations

Time (MST) Temp. Windchill Dew Point Humidity Pressure Visibility Wind Dir Wind Speed Gust Speed Precip Events Conditions
12:56 AM 23.0 °F 13.1 °F 10.0 °F 58% 30.15 in - WNW 9.2 mph - N/A   Unknown
1:56 AM 25.0 °F 14.2 °F 12.0 °F 58% 30.15 in - NW 11.5 mph - N/A   Unknown
2:56 AM 27.0 °F 18.0 °F 16.0 °F 63% 30.14 in - NNW 9.2 mph - N/A   Unknown
3:56 AM 28.9 °F 18.6 °F 16.0 °F 58% 30.12 in - NNW 12.7 mph - N/A   Unknown
4:56 AM 35.1 °F 24.1 °F 16.0 °F 46% 30.11 in - NNW 19.6 mph - N/A   Unknown
5:56 AM 35.1 °F 25.2 °F 17.1 °F 48% 30.14 in - NNW 16.1 mph - N/A   Unknown
6:56 AM 36.0 °F 26.3 °F 17.1 °F 46% 30.17 in - NNW 16.1 mph - N/A   Unknown
7:56 AM 37.0 °F 28.5 °F 19.0 °F 48% 30.18 in - North 13.8 mph 21.9 mph N/A   Unknown
8:56 AM 41.0 °F 32.5 °F 19.9 °F 43% 30.19 in - North 17.3 mph - N/A   Unknown
9:56 AM 45.0 °F 36.9 °F 21.0 °F 39% 30.20 in - NNE 20.7 mph 26.5 mph N/A   Unknown
10:56 AM 46.9 °F - 19.9 °F 34% 30.19 in - North 19.6 mph 27.6 mph N/A   Unknown
11:56 AM 48.0 °F - 21.0 °F 34% 30.17 in - NNE 20.7 mph 27.6 mph N/A   Unknown
12:56 PM 50.0 °F - 21.9 °F 33% 30.15 in - North 21.9 mph - N/A   Unknown
1:56 PM 52.0 °F - 21.9 °F 31% 30.14 in - NNE 15.0 mph 23.0 mph N/A   Unknown
2:56 PM 51.1 °F - 21.9 °F 32% 30.14 in - NNE 17.3 mph 23.0 mph N/A   Unknown
3:56 PM 50.0 °F - 21.9 °F 33% 30.17 in - NNE 13.8 mph - N/A   Unknown
4:56 PM 41.0 °F 36.4 °F 21.0 °F 45% 30.21 in - North 6.9 mph - N/A   Unknown
5:56 PM 37.0 °F 30.4 °F 19.9 °F 50% 30.25 in - NW 9.2 mph - N/A   Unknown
6:56 PM 32.0 °F 23.6 °F 19.0 °F 59% 30.27 in - NW 10.4 mph - N/A   Unknown
7:56 PM 33.1 °F 24.4 °F 19.0 °F 56% 30.31 in - North 11.5 mph - N/A   Unknown
8:56 PM 28.9 °F 21.9 °F 18.0 °F 64% 30.33 in - NNW 6.9 mph - N/A   Unknown
9:56 PM 28.0 °F 18.6 °F 18.0 °F 66% 30.33 in - NW 10.4 mph - N/A   Unknown
10:56 PM 27.0 °F 19.5 °F 18.0 °F 69% 30.35 in - NNW 6.9 mph - N/A   Unknown
11:56 PM 27.0 °F 16.7 °F 17.1 °F 66% 30.37 in - NW 11.5 mph - N/A   Unknown